EXS24B MMMX-MMGL

Flight info

Callsign EXS24B
Flight time 1h 7m
Altitude 34000
Route OVAG3A/05L OVAGO UT123 IGSON IGSON1B
Aircraft B738/M-SDE2E3FGHIRWXY/LB1

Departure

Time 2026-05-08 03:42
Airport Mexico City Benito Juárez International Airport (MMMX)

Arrival

Time 2026-05-08 04:49
Airport Guadalajara International Airport (MMGL)
Time Latitude Longitude Altitude Speed Heading
2026-05-08 03:09 19.43318 -99.08472 7301 ft 0 kts 328°
2026-05-08 03:26 19.43316 -99.08470 7300 ft 1 kts 328°
2026-05-08 03:26 19.43308 -99.08465 7300 ft 1 kts 328°
2026-05-08 03:26 19.43301 -99.08461 7301 ft 1 kts 328°
2026-05-08 03:27 19.43287 -99.08452 7300 ft 3 kts 328°
2026-05-08 03:27 19.43272 -99.08442 7300 ft 3 kts 327°
2026-05-08 03:27 19.43258 -99.08430 7300 ft 3 kts 305°
2026-05-08 03:27 19.43251 -99.08413 7301 ft 3 kts 271°
2026-05-08 03:28 19.43253 -99.08394 7301 ft 1 kts 251°
2026-05-08 03:30 19.43229 -99.08442 7300 ft 5 kts 238°
2026-05-08 03:30 19.43192 -99.08508 7300 ft 5 kts 239°
2026-05-08 03:31 19.43152 -99.08578 7300 ft 8 kts 239°
2026-05-08 03:31 19.43099 -99.08675 7300 ft 7 kts 239°
2026-05-08 03:32 19.43072 -99.08721 7300 ft 7 kts 238°
2026-05-08 03:32 19.43047 -99.08766 7300 ft 7 kts 239°
2026-05-08 03:32 19.43022 -99.08811 7300 ft 8 kts 239°
2026-05-08 03:32 19.42995 -99.08858 7300 ft 7 kts 240°
2026-05-08 03:33 19.42970 -99.08904 7300 ft 7 kts 239°
2026-05-08 03:33 19.42945 -99.08949 7300 ft 7 kts 238°
2026-05-08 03:33 19.42919 -99.08991 7300 ft 7 kts 234°
2026-05-08 03:33 19.42908 -99.09006 7300 ft 3 kts 230°
2026-05-08 03:34 19.42893 -99.09022 7300 ft 1 kts 220°
2026-05-08 03:34 19.42890 -99.09024 7300 ft 0 kts 218°
2026-05-08 03:38 19.42888 -99.09026 7300 ft 1 kts 214°
2026-05-08 03:38 19.42876 -99.09033 7300 ft 3 kts 211°
2026-05-08 03:39 19.42866 -99.09040 7300 ft 0 kts 210°
2026-05-08 03:39 19.42837 -99.09057 7300 ft 7 kts 207°
2026-05-08 03:39 19.42791 -99.09071 7300 ft 7 kts 177°
2026-05-08 03:39 19.42775 -99.09031 7301 ft 7 kts 81°
2026-05-08 03:40 19.42789 -99.08992 7301 ft 0 kts 59°
2026-05-08 03:41 19.42814 -99.08947 7301 ft 31 kts 59°
2026-05-08 03:41 19.43046 -99.08538 7300 ft 98 kts 60°
2026-05-08 03:41 19.43497 -99.07734 7303 ft 153 kts 59°
2026-05-08 03:42 19.44147 -99.06639 7375 ft 196 kts 54°
2026-05-08 03:42 19.44881 -99.05322 7726 ft 205 kts 58°
2026-05-08 03:42 19.45656 -99.04101 8802 ft 190 kts 39°
2026-05-08 03:42 19.46679 -99.03322 9644 ft 180 kts 39°
2026-05-08 03:43 19.47660 -99.02362 9848 ft 206 kts 55°
2026-05-08 03:43 19.48087 -99.00915 10034 ft 221 kts 97°
2026-05-08 03:43 19.47442 -98.99414 10205 ft 235 kts 137°
2026-05-08 03:43 19.45968 -98.98640 10347 ft 252 kts 172°
2026-05-08 03:44 19.44201 -98.98910 10554 ft 264 kts 204°
2026-05-08 03:44 19.42739 -99.00093 10958 ft 267 kts 226°
2026-05-08 03:44 19.41473 -99.01543 11412 ft 270 kts 225°
2026-05-08 03:44 19.40152 -99.02955 11866 ft 271 kts 224°
2026-05-08 03:45 19.38818 -99.04329 12471 ft 265 kts 223°
2026-05-08 03:45 19.37561 -99.05731 13077 ft 262 kts 236°
2026-05-08 03:45 19.36872 -99.07497 13726 ft 259 kts 254°
2026-05-08 03:45 19.36538 -99.09351 14354 ft 256 kts 259°
2026-05-08 03:46 19.36282 -99.11209 14923 ft 253 kts 260°
2026-05-08 03:46 19.36039 -99.13040 15511 ft 250 kts 260°
2026-05-08 03:46 19.35803 -99.14792 16081 ft 247 kts 260°
2026-05-08 03:46 19.35555 -99.16587 16676 ft 244 kts 260°
2026-05-08 03:47 19.35536 -99.16719 16729 ft 243 kts 259°
2026-05-08 03:47 19.35533 -99.16742 16734 ft 243 kts 259°
2026-05-08 03:48 19.35298 -99.18410 17303 ft 239 kts 259°
2026-05-08 03:48 19.35054 -99.20120 17914 ft 234 kts 259°
2026-05-08 03:48 19.34813 -99.21787 18532 ft 228 kts 259°
2026-05-08 03:48 19.34577 -99.23419 19076 ft 221 kts 259°
2026-05-08 03:49 19.34348 -99.24993 19614 ft 212 kts 259°
2026-05-08 03:49 19.34126 -99.26509 20078 ft 208 kts 258°
2026-05-08 03:49 19.33892 -99.28090 20161 ft 225 kts 258°
2026-05-08 03:49 19.33642 -99.29778 20280 ft 240 kts 258°
2026-05-08 03:50 19.33375 -99.31585 20386 ft 256 kts 258°
2026-05-08 03:50 19.33092 -99.33506 20481 ft 272 kts 258°
2026-05-08 03:50 19.32792 -99.35539 20557 ft 287 kts 258°
2026-05-08 03:50 19.32477 -99.37670 20789 ft 300 kts 258°
2026-05-08 03:51 19.32142 -99.39900 20896 ft 313 kts 257°
2026-05-08 03:51 19.31731 -99.42158 21067 ft 320 kts 256°
2026-05-08 03:51 19.31280 -99.44469 21405 ft 321 kts 255°
2026-05-08 03:51 19.30821 -99.46791 21813 ft 321 kts 255°
2026-05-08 03:52 19.30792 -99.46938 21838 ft 321 kts 256°
2026-05-08 03:52 19.30446 -99.48691 22173 ft 319 kts 255°
2026-05-08 03:53 19.29994 -99.50998 22486 ft 321 kts 255°
2026-05-08 03:53 19.29541 -99.53319 22749 ft 325 kts 255°
2026-05-08 03:53 19.29081 -99.55682 22898 ft 334 kts 255°
2026-05-08 03:53 19.28600 -99.58151 22960 ft 350 kts 255°
2026-05-08 03:54 19.28104 -99.60705 23074 ft 368 kts 255°
2026-05-08 03:54 19.27579 -99.63412 23200 ft 384 kts 256°
2026-05-08 03:54 19.27035 -99.66225 23415 ft 394 kts 256°
2026-05-08 03:54 19.26483 -99.69089 23856 ft 398 kts 255°
2026-05-08 03:55 19.25928 -99.71968 24241 ft 401 kts 255°
2026-05-08 03:55 19.25370 -99.74855 24250 ft 400 kts 255°
2026-05-08 03:55 19.24811 -99.77737 24246 ft 400 kts 255°
2026-05-08 03:55 19.24250 -99.80626 24216 ft 402 kts 255°
2026-05-08 03:56 19.23704 -99.83554 24395 ft 407 kts 256°
2026-05-08 03:56 19.23178 -99.86479 24919 ft 404 kts 256°
2026-05-08 03:56 19.22654 -99.89404 25388 ft 405 kts 256°
2026-05-08 03:56 19.22142 -99.92248 25747 ft 408 kts 256°
2026-05-08 03:57 19.22117 -99.92382 25757 ft 408 kts 256°
2026-05-08 03:57 19.21599 -99.95242 26122 ft 411 kts 256°
2026-05-08 03:58 19.21058 -99.98223 26474 ft 414 kts 256°
2026-05-08 03:58 19.20512 -100.01222 26867 ft 416 kts 257°
2026-05-08 03:58 19.19971 -100.04196 27276 ft 418 kts 257°
2026-05-08 03:58 19.19421 -100.07215 27772 ft 418 kts 257°
2026-05-08 03:59 19.18892 -100.10233 28326 ft 417 kts 260°
2026-05-08 03:59 19.18751 -100.13293 28810 ft 418 kts 270°
2026-05-08 03:59 19.19059 -100.16353 29343 ft 420 kts 278°
2026-05-08 03:59 19.19813 -100.19349 29870 ft 421 kts 285°
2026-05-08 04:00 19.20747 -100.22277 30419 ft 418 kts 286°
2026-05-08 04:00 19.21697 -100.25154 31054 ft 412 kts 286°
2026-05-08 04:00 19.22623 -100.27964 31524 ft 409 kts 286°
2026-05-08 04:00 19.23550 -100.30808 31878 ft 410 kts 285°
2026-05-08 04:01 19.24470 -100.33669 31924 ft 409 kts 285°
2026-05-08 04:01 19.26295 -100.39412 32030 ft 419 kts 285°
2026-05-08 04:01 19.27226 -100.42362 32210 ft 425 kts 285°
2026-05-08 04:02 19.27258 -100.42463 32219 ft 425 kts 285°
2026-05-08 04:02 19.27433 -100.43015 32222 ft 426 kts 285°
2026-05-08 04:02 19.28372 -100.45990 32595 ft 426 kts 285°
2026-05-08 04:03 19.29298 -100.48916 33097 ft 423 kts 285°
2026-05-08 04:03 19.31147 -100.54771 33895 ft 420 kts 285°
2026-05-08 04:03 19.32077 -100.57725 33885 ft 425 kts 285°
2026-05-08 04:04 19.33932 -100.63611 33875 ft 416 kts 285°
2026-05-08 04:04 19.35747 -100.69379 33911 ft 414 kts 285°
2026-05-08 04:05 19.37606 -100.75166 33915 ft 416 kts 287°
2026-05-08 04:05 19.39591 -100.80894 33908 ft 418 kts 287°
2026-05-08 04:06 19.41613 -100.86684 33908 ft 420 kts 287°
2026-05-08 04:06 19.43628 -100.92502 33904 ft 420 kts 287°
2026-05-08 04:07 19.43643 -100.92547 33904 ft 420 kts 287°
2026-05-08 04:07 19.44318 -100.94507 33901 ft 420 kts 287°
2026-05-08 04:08 19.46093 -100.99668 33893 ft 418 kts 287°
2026-05-08 04:08 19.48074 -101.05440 33935 ft 416 kts 287°
2026-05-08 04:09 19.50043 -101.11190 33937 ft 414 kts 287°
2026-05-08 04:09 19.51989 -101.16877 33935 ft 413 kts 287°
2026-05-08 04:10 19.53942 -101.22589 33936 ft 412 kts 287°
2026-05-08 04:10 19.55888 -101.28290 33930 ft 411 kts 287°
2026-05-08 04:11 19.57834 -101.33997 33957 ft 411 kts 287°
2026-05-08 04:11 19.59781 -101.39703 33960 ft 412 kts 286°
2026-05-08 04:12 19.60148 -101.40784 33953 ft 412 kts 286°
2026-05-08 04:13 19.62094 -101.46510 33964 ft 412 kts 286°
2026-05-08 04:13 19.64028 -101.52204 33576 ft 411 kts 286°
2026-05-08 04:14 19.64991 -101.55035 33184 ft 406 kts 286°
2026-05-08 04:14 19.65942 -101.57834 32811 ft 402 kts 286°
2026-05-08 04:14 19.66885 -101.60612 32417 ft 399 kts 286°
2026-05-08 04:14 19.67817 -101.63364 32021 ft 396 kts 286°
2026-05-08 04:15 19.68748 -101.66111 31608 ft 394 kts 286°
2026-05-08 04:15 19.69672 -101.68841 31237 ft 392 kts 286°
2026-05-08 04:15 19.70587 -101.71549 30837 ft 390 kts 286°
2026-05-08 04:15 19.71501 -101.74252 30450 ft 389 kts 286°
2026-05-08 04:16 19.72415 -101.76957 30049 ft 388 kts 286°
2026-05-08 04:16 19.73310 -101.79608 29610 ft 386 kts 286°
2026-05-08 04:16 19.74213 -101.82282 29172 ft 383 kts 286°
2026-05-08 04:16 19.75107 -101.84931 28780 ft 381 kts 285°
2026-05-08 04:17 19.75112 -101.84945 28780 ft 381 kts 285°
2026-05-08 04:17 19.75837 -101.87097 28428 ft 379 kts 285°
2026-05-08 04:18 19.76722 -101.89719 28037 ft 374 kts 285°
2026-05-08 04:18 19.77593 -101.92303 27635 ft 368 kts 285°
2026-05-08 04:18 19.78436 -101.94804 27238 ft 362 kts 285°
2026-05-08 04:18 19.79282 -101.97319 26545 ft 365 kts 285°
2026-05-08 04:19 19.80146 -101.99898 25668 ft 374 kts 285°
2026-05-08 04:19 19.81018 -102.02498 25194 ft 371 kts 285°
2026-05-08 04:19 19.81881 -102.05062 24751 ft 367 kts 285°
2026-05-08 04:19 19.82734 -102.07598 24348 ft 363 kts 285°
2026-05-08 04:20 19.83579 -102.10114 23955 ft 359 kts 285°
2026-05-08 04:20 19.84415 -102.12606 23566 ft 356 kts 285°
2026-05-08 04:20 19.85240 -102.15067 23121 ft 352 kts 285°
2026-05-08 04:20 19.86055 -102.17500 22735 ft 347 kts 286°
2026-05-08 04:21 19.86847 -102.19865 22370 ft 343 kts 286°
2026-05-08 04:21 19.87642 -102.22243 22009 ft 341 kts 286°
2026-05-08 04:21 19.88436 -102.24617 21647 ft 341 kts 286°
2026-05-08 04:21 19.89229 -102.26993 21293 ft 352 kts 287°
2026-05-08 04:22 19.90003 -102.29312 20919 ft 358 kts 287°
2026-05-08 04:23 19.90837 -102.31801 20344 ft 358 kts 287°
2026-05-08 04:23 19.91669 -102.34276 19953 ft 353 kts 287°
2026-05-08 04:23 19.92490 -102.36721 19587 ft 347 kts 288°
2026-05-08 04:23 19.93294 -102.39115 19235 ft 342 kts 288°
2026-05-08 04:24 19.94087 -102.41482 18881 ft 338 kts 287°
2026-05-08 04:24 19.94871 -102.43823 18428 ft 337 kts 287°
2026-05-08 04:24 19.95654 -102.46173 17993 ft 336 kts 287°
2026-05-08 04:24 19.96421 -102.48477 17615 ft 332 kts 287°
2026-05-08 04:25 19.97182 -102.50768 17260 ft 327 kts 287°
2026-05-08 04:25 19.97936 -102.53039 16889 ft 324 kts 288°
2026-05-08 04:25 19.98683 -102.55284 16464 ft 322 kts 288°
2026-05-08 04:25 19.99428 -102.57523 16045 ft 320 kts 288°
2026-05-08 04:26 20.00193 -102.59735 15664 ft 317 kts 294°
2026-05-08 04:26 20.01509 -102.61585 15342 ft 313 kts 320°
2026-05-08 04:26 20.03323 -102.62802 15061 ft 307 kts 333°
2026-05-08 04:26 20.05173 -102.63784 14775 ft 307 kts 334°
2026-05-08 04:27 20.05235 -102.63816 14764 ft 307 kts 334°
2026-05-08 04:28 20.07149 -102.64814 14465 ft 306 kts 334°
2026-05-08 04:28 20.09050 -102.65818 14172 ft 305 kts 334°
2026-05-08 04:28 20.10938 -102.66831 13878 ft 303 kts 334°
2026-05-08 04:28 20.12813 -102.67843 13753 ft 301 kts 334°
2026-05-08 04:29 20.14676 -102.68810 13557 ft 302 kts 341°
2026-05-08 04:29 20.16751 -102.69096 13284 ft 297 kts
2026-05-08 04:29 20.18692 -102.68534 13049 ft 292 kts 24°
2026-05-08 04:29 20.20555 -102.67690 12810 ft 290 kts 26°
2026-05-08 04:30 20.22391 -102.66823 12556 ft 286 kts 25°
2026-05-08 04:30 20.24186 -102.65980 12313 ft 276 kts 25°
2026-05-08 04:30 20.25898 -102.65186 12091 ft 261 kts 24°
2026-05-08 04:30 20.27524 -102.64441 11844 ft 248 kts 24°
2026-05-08 04:31 20.29069 -102.63736 11579 ft 241 kts 23°
2026-05-08 04:31 20.30594 -102.63043 11331 ft 236 kts 22°
2026-05-08 04:31 20.32085 -102.62367 11089 ft 235 kts 22°
2026-05-08 04:31 20.33544 -102.61705 10862 ft 235 kts 21°
2026-05-08 04:32 20.34687 -102.61362 10669 ft 234 kts 360°
2026-05-08 04:33 20.36304 -102.61522 10473 ft 234 kts 351°
2026-05-08 04:33 20.37912 -102.61738 10245 ft 235 kts 351°
2026-05-08 04:33 20.39483 -102.61945 10020 ft 233 kts 351°
2026-05-08 04:33 20.41082 -102.62154 9779 ft 233 kts 348°
2026-05-08 04:34 20.42696 -102.62365 9502 ft 234 kts 350°
2026-05-08 04:34 20.44313 -102.62574 9199 ft 234 kts 349°
2026-05-08 04:34 20.45911 -102.62778 8907 ft 229 kts 350°
2026-05-08 04:34 20.47473 -102.62977 8606 ft 224 kts 349°
2026-05-08 04:35 20.49028 -102.63176 8264 ft 224 kts 348°
2026-05-08 04:35 20.50571 -102.63372 7949 ft 223 kts 348°
2026-05-08 04:35 20.52102 -102.63566 7631 ft 218 kts 348°
2026-05-08 04:35 20.53512 -102.63914 7289 ft 210 kts 327°
2026-05-08 04:36 20.54440 -102.64991 7236 ft 203 kts 291°
2026-05-08 04:36 20.54557 -102.66452 7191 ft 199 kts 257°
2026-05-08 04:36 20.54116 -102.67816 7176 ft 194 kts 251°
2026-05-08 04:36 20.53640 -102.69150 7189 ft 189 kts 251°
2026-05-08 04:37 20.53162 -102.70488 7184 ft 197 kts 250°
2026-05-08 04:37 20.52664 -102.71840 7180 ft 195 kts 250°
2026-05-08 04:37 20.52164 -102.73195 7204 ft 198 kts 249°
2026-05-08 04:37 20.51638 -102.74544 7173 ft 194 kts 250°
2026-05-08 04:38 20.51137 -102.75865 7164 ft 193 kts 250°
2026-05-08 04:38 20.50653 -102.77181 7154 ft 194 kts 250°
2026-05-08 04:38 20.50157 -102.78512 7179 ft 194 kts 251°
2026-05-08 04:38 20.49646 -102.79838 7164 ft 193 kts 250°
2026-05-08 04:39 20.49149 -102.81161 7192 ft 192 kts 250°
2026-05-08 04:39 20.48679 -102.82428 7164 ft 195 kts 250°
2026-05-08 04:39 20.48193 -102.83762 7178 ft 193 kts 250°
2026-05-08 04:39 20.47703 -102.85093 7161 ft 193 kts 250°
2026-05-08 04:40 20.47312 -102.86429 7171 ft 190 kts 257°
2026-05-08 04:40 20.47034 -102.87807 7171 ft 192 kts 259°
2026-05-08 04:40 20.46787 -102.89212 7170 ft 192 kts 260°
2026-05-08 04:40 20.46544 -102.90607 7162 ft 190 kts 261°
2026-05-08 04:41 20.46291 -102.92011 7077 ft 197 kts 260°
2026-05-08 04:41 20.46040 -102.93447 6961 ft 197 kts 260°
2026-05-08 04:41 20.45799 -102.94868 6844 ft 193 kts 261°
2026-05-08 04:41 20.45552 -102.96261 6736 ft 191 kts 260°
2026-05-08 04:42 20.45300 -102.97695 6672 ft 202 kts 259°
2026-05-08 04:42 20.45061 -102.99149 6755 ft 193 kts 260°
2026-05-08 04:42 20.44824 -103.00519 6859 ft 188 kts 259°
2026-05-08 04:42 20.44594 -103.01896 7026 ft 189 kts 261°
2026-05-08 04:43 20.44366 -103.03219 7204 ft 193 kts 260°
2026-05-08 04:43 20.44120 -103.04620 7383 ft 192 kts 261°
2026-05-08 04:43 20.43870 -103.06015 7575 ft 193 kts 260°
2026-05-08 04:43 20.43620 -103.07437 7568 ft 200 kts 260°
2026-05-08 04:44 20.43370 -103.08867 7420 ft 193 kts 260°
2026-05-08 04:44 20.43136 -103.10280 7388 ft 198 kts 269°
2026-05-08 04:44 20.43564 -103.11621 7262 ft 190 kts 303°
2026-05-08 04:44 20.44254 -103.12773 7396 ft 180 kts 298°
2026-05-08 04:45 20.44886 -103.13904 7390 ft 176 kts 298°
2026-05-08 04:45 20.45439 -103.15028 7408 ft 172 kts 295°
2026-05-08 04:45 20.45936 -103.16167 7334 ft 171 kts 292°
2026-05-08 04:45 20.46419 -103.17315 7171 ft 168 kts 292°
2026-05-08 04:46 20.46892 -103.18448 6987 ft 166 kts 292°
2026-05-08 04:46 20.47352 -103.19549 6824 ft 160 kts 292°
2026-05-08 04:46 20.47804 -103.20632 6659 ft 158 kts 292°
2026-05-08 04:46 20.48236 -103.21669 6475 ft 151 kts 292°
2026-05-08 04:47 20.48647 -103.22655 6312 ft 141 kts 292°
2026-05-08 04:47 20.49036 -103.23576 6207 ft 135 kts 291°
2026-05-08 04:47 20.49413 -103.24484 6083 ft 136 kts 292°
2026-05-08 04:47 20.49799 -103.25410 5941 ft 138 kts 292°
2026-05-08 04:48 20.50190 -103.26348 5750 ft 138 kts 291°
2026-05-08 04:48 20.50567 -103.27256 5564 ft 132 kts 291°
2026-05-08 04:48 20.50929 -103.28159 5344 ft 133 kts 292°
2026-05-08 04:48 20.51280 -103.28984 5098 ft 121 kts 294°
2026-05-08 04:49 20.51638 -103.29799 5021 ft 116 kts 292°
2026-05-08 04:49 20.51913 -103.30470 5016 ft 78 kts 294°
2026-05-08 04:49 20.52076 -103.30859 5021 ft 36 kts 294°
2026-05-08 04:49 20.52122 -103.30963 5021 ft 0 kts 297°
2026-05-08 04:50 20.52155 -103.31035 5022 ft 30 kts 295°
2026-05-08 04:50 20.52271 -103.31060 5022 ft 20 kts 30°
2026-05-08 04:50 20.52370 -103.31000 5021 ft 10 kts 31°
2026-05-08 04:50 20.52422 -103.30937 5020 ft 13 kts 57°
2026-05-08 04:51 20.52460 -103.30842 5018 ft 14 kts 70°
2026-05-08 04:51 20.52494 -103.30749 5019 ft 13 kts 69°
2026-05-08 04:51 20.52526 -103.30656 5019 ft 14 kts 70°
2026-05-08 04:51 20.52548 -103.30556 5019 ft 10 kts 60°
2026-05-08 04:52 20.52561 -103.30539 5018 ft 2 kts 70°
2026-05-08 04:52 20.52563 -103.30534 5019 ft 0 kts 66°